This demonstration page uses our WeatherBlox Daily Observations layout. Learn more.

Left ArrowRight Arrow

38.88101, -77.10428

Hourly Observations for December 2, 2019

Temp ( °F °C ) Dew Point ( °F °C ) Humidity (%) Winds ( mph kmh ) Pressure ( in mb ) Visibility ( mi km ) Precip ( " mm )
12:52 am 00:52 Cloudy 40 4.4 36 2.2 86 86 NNW 12 19 29.55 1001 10 16 N/A
1:05 am 01:05 Cloudy 40 4.4 36 2.2 86 86 N 13 20 29.53 1000 10 16 N/A
1:52 am 01:52 Cloudy 40 4.4 36 2.2 86 86 NNW 9 15 29.54 1000 10 16 N/A
2:45 am 02:45 Cloudy 40 4.4 37 2.8 89 89 NNW 7 11 29.55 1001 10 16 N/A
2:52 am 02:52 Cloudy 40 4.4 37 2.8 89 89 NNW 7 11 29.54 1000 10 16 N/A
3:12 am 03:12 Cloudy 40 4.4 37 2.8 89 89 NNW 6 9 29.54 1000 10 16 N/A
3:52 am 03:52 Cloudy 40 4.4 37 2.8 89 89 NW 9 15 29.55 1001 10 16 N/A
4:52 am 04:52 Cloudy 40 4.4 36 2.2 86 86 NW 7 11 29.57 1001 10 16 N/A
5:52 am 05:52 Cloudy 40 4.4 37 2.8 89 89 N 8 13 29.56 1001 10 16 N/A
6:52 am 06:52 Cloudy 41 5 36 2.2 82 82 NNW 7 11 29.59 1002 10 16 N/A
7:52 am 07:52 Cloudy 41 5 37 2.8 86 86 NNW 6 9 29.60 1002 10 16 N/A
8:52 am 08:52 Cloudy 41 5 36 2.2 82 82 NNW 6 9 29.61 1003 10 16 N/A
10:52 am 10:52 Mostly Cloudy with Light Rain 42 5.6 35 1.7 76 76 N 10 17 29.62 1003 10 16 0.00 0.00
10:55 am 10:55 Mostly Cloudy 34 1 36 2 100 100 N 10 17 29.62 1003 10 16 N/A
11:52 am 11:52 Cloudy with Light Rain 43 6.1 35 1.7 74 74 NW 13 20 29.60 1002 10 16 0.00 0.00
12:52 pm 12:52 Cloudy with Light Rain 42 5.6 36 2.2 79 79 WNW 10 17 29.57 1002 10 16 0.01 0.25
1:52 pm 13:52 Cloudy with Light Rain 43 6.1 36 2.2 76 76 WNW 10 17 29.57 1001 10 16 0.00 0.00
2:10 pm 14:10 Cloudy with Light Rain 44 6.7 36 2.2 73 73 NNW 16 26 29.57 1001 10 16 0.00 0.00
2:52 pm 14:52 Cloudy 44 6.7 35 1.7 71 71 NW 10 17 29.58 1002 10 16 0.00 0.00
2:58 pm 14:58 Cloudy 44 6.7 35 1.7 71 71 NW 15 24 29.59 1002 10 16 N/A
3:28 pm 15:28 Cloudy 43 6.1 35 1.7 74 74 NW 13 20 29.61 1003 10 16 N/A
3:52 pm 15:52 Cloudy with Light Rain 43 6.1 36 2.2 76 76 NW 14 22 29.61 1003 10 16 0.00 0.00
5:52 pm 17:52 Cloudy with Light Rain 43 6.1 35 1.7 74 74 NW 10 17 29.64 1004 10 16 0.00 0.00
6:52 pm 18:52 Cloudy 43 6.1 36 2.2 76 76 WNW 12 19 29.65 1004 10 16 0.00 0.00
7:34 pm 19:34 Cloudy with Light Rain 43 6.1 36 2.2 76 76 N 13 20 29.66 1004 10 16 0.00 0.00
7:42 pm 19:42 Cloudy 42 5.6 37 2.8 82 82 N 10 17 29.66 1004 10 16 0.00 0.00
7:52 pm 19:52 Cloudy 43 6.1 36 2.2 76 76 NNW 8 13 29.66 1005 10 16 0.00 0.00
7:59 pm 19:59 Cloudy 43 6.1 36 2.2 76 76 NNW 10 17 29.66 1004 10 16 N/A
8:52 pm 20:52 Cloudy 43 6.1 35 1.7 74 74 NW 14 22 29.67 1005 10 16 N/A
9:52 pm 21:52 Cloudy 42 5.6 33 0.6 71 71 NW 15 24 29.67 1005 10 16 N/A
10:52 pm 22:52 Cloudy 42 5.6 33 0.6 71 71 NNW 14 22 29.69 1006 10 16 N/A
11:52 pm 23:52 Partly Cloudy 40 4.4 30 -1.1 68 68 NNW 17 28 29.70 1006 10 16 N/A

Powered by AerisWeather